N1LTP Weather Reports


time (UTC)temp
C
wind
direction
speed
KPH
gust
KPH
rain 1hr
cm
rain 24hr
cm
rain mn
cm
humidity
%
barometer
mb
20260502200039 11 121 1.6 6.4 0.00 0.00 0.00 79 1009.9
20260502194536 11 172 0.0 11.3 0.00 0.00 0.00 78 1010.2
20260502193035 11 138 1.6 9.7 0.00 0.00 0.00 77 1010.4
20260502191544 11 248 3.2 11.3 0.00 0.00 0.00 73 1010.6
20260502190038 12 251 1.6 12.9 0.00 0.00 0.00 72 1010.6
20260502184545 12 140 1.6 6.4 0.00 0.00 0.00 68 1010.5
20260502183040 11 153 0.0 4.8 0.00 0.00 0.00 77 1010.5
20260502181540 12 44 0.0 6.4 0.00 0.00 0.00 79 1010.7
20260502163025 15 141 3.2 12.9 0.00 0.00 0.00 59 1010.5
20260502161523 14 44 1.6 9.7 0.00 0.00 0.00 61 1010.6
20260502151515 13 331 0.0 3.2 0.00 0.00 0.00 71 1011.2
20260502123051 10 360 0.0 4.8 0.00 0.00 0.00 79 1011.9
20260502121552 10 268 1.6 6.4 0.00 0.00 0.00 80 1011.8
20260502114543 8 80 0.0 3.2 0.00 0.00 0.00 83 1011.5
20260502113037 8 80 0.0 3.2 0.00 0.00 0.00 84 1011.4
20260502111533 8 80 0.0 1.6 0.00 0.00 0.00 85 1011.6
20260502110029 7 80 0.0 1.6 0.00 0.00 0.00 86 1011.4
20260502104527 7 80 0.0 1.6 0.00 0.00 0.00 87 1011.3
20260502103029 6 80 0.0 3.2 0.00 0.00 0.00 87 1011.2
20260502101535 6 79 0.0 6.4 0.00 0.00 0.00 88 1011.3
20260502091517 5 190 0.0 0.0 0.00 0.00 0.00 88 1011.1
20260502071509 6 190 0.0 0.0 0.00 0.00 0.00 84 1011.0
20260502070008 6 190 0.0 0.0 0.00 0.00 0.00 84 1011.0
20260502064508 6 190 0.0 0.0 0.00 0.00 0.00 85 1011.1
20260502063017 5 190 0.0 0.0 0.00 0.00 0.00 84 1011.2
20260502061504 5 190 0.0 0.0 0.00 0.00 0.00 84 1011.2
20260502060003 5 190 0.0 0.0 0.00 0.00 0.00 82 1011.2
20260502054501 6 190 0.0 0.0 0.00 0.00 0.00 81 1011.3
20260502053127 6 190 0.0 0.0 0.00 0.00 0.00 80 1011.3
20260502051614 6 190 0.0 0.0 0.00 0.00 0.00 80 1011.3
20260502050056 6 190 0.0 0.0 0.00 0.00 0.00 80 1011.3
20260502044555 6 190 0.0 0.0 0.00 0.00 0.00 79 1011.4
20260502043100 6 190 0.0 0.0 0.00 0.00 0.00 78 1011.5
20260502041616 6 190 0.0 0.0 0.00 0.00 0.00 78 1011.4
20260502040048 7 190 0.0 0.0 0.00 0.00 0.00 77 1011.4
20260502034547 7 190 0.0 0.0 0.00 0.00 0.00 74 1011.3
20260502033059 7 190 0.0 0.0 0.00 0.00 0.00 73 1011.3
20260502031543 7 190 0.0 0.0 0.00 0.00 0.00 72 1011.2
20260502030042 7 190 0.0 0.0 0.00 0.00 0.00 71 1011.1
20260502024541 7 190 0.0 0.0 0.00 0.00 0.00 72 1011.1
20260502023042 7 190 0.0 0.0 0.00 0.00 0.00 74 1011.1
20260502021539 7 190 0.0 0.0 0.00 0.00 0.00 71 1010.9
20260502020038 8 190 0.0 0.0 0.00 0.00 0.00 71 1010.9
20260502014535 8 313 0.0 1.6 0.00 0.00 0.00 68 1010.8
20260502013035 9 313 0.0 0.0 0.00 0.00 0.00 69 1010.8
20260502011533 10 313 0.0 0.0 0.00 0.00 0.00 65 1010.7
20260502010031 10 313 0.0 0.0 0.00 0.00 0.00 61 1010.5
20260502004529 11 313 0.0 0.0 0.00 0.00 0.00 56 1010.2
20260502003029 12 313 0.0 0.0 0.00 0.00 0.00 52 1010.1
20260502001526 12 313 0.0 0.0 0.00 0.00 0.00 53 1009.9
20260502000026 13 313 0.0 0.0 0.00 0.00 0.00 46 1009.5
20260501234525 14 313 0.0 3.2 0.00 0.00 0.00 45 1009.3
20260501233024 15 330 1.6 6.4 0.00 0.00 0.00 43 1009.1
20260501231523 15 314 0.0 6.4 0.00 0.00 0.00 41 1008.8
20260501230023 16 310 0.0 6.4 0.00 0.00 0.00 38 1008.7
20260501224522 16 325 3.2 12.9 0.00 0.00 0.00 36 1008.5
20260501223030 16 315 6.4 17.7 0.00 0.00 0.00 35 1008.3
20260501221524 16 295 4.8 14.5 0.00 0.00 0.00 36 1008.3
20260501220021 16 314 6.4 16.1 0.00 0.00 0.00 34 1008.3
20260501214522 16 355 3.2 14.5 0.00 0.00 0.00 37 1008.2
20260501213019 16 304 8.0 17.7 0.00 0.00 0.00 33 1008.1
20260501211518 16 299 4.8 22.5 0.00 0.00 0.00 35 1008.0
20260501210019 16 304 3.2 12.9 0.00 0.00 0.00 34 1008.0
20260501204523 16 320 4.8 14.5 0.00 0.00 0.00 36 1007.9
20260501203017 16 294 4.8 17.7 0.00 0.00 0.00 35 1007.9
20260501201515 16 296 4.8 19.3 0.00 0.00 0.00 34 1007.9